Time,TemperatureF,DewpointF,PressureIn,WindDirection,WindDirectionDegrees,WindSpeedMPH,WindSpeedGustMPH,Humidity,HourlyPrecipIn,Conditions,Clouds,dailyrainin,SoftwareType,DateUTC
2013-04-18 00:00:00,70.2,65.1,30.02,South,183,0.0,0.0,84,0.00,,,0.00,Wunderground v.1.15,2013-04-18 05:00:00,
2013-04-18 00:10:00,70.2,65.1,30.02,South,183,0.0,0.0,84,0.00,,,0.00,Wunderground v.1.15,2013-04-18 05:10:00,
2013-04-18 00:20:00,70.2,65.1,30.01,South,183,0.0,0.0,84,0.00,,,0.00,Wunderground v.1.15,2013-04-18 05:20:00,
2013-04-18 00:30:00,70.0,64.9,30.01,South,183,0.0,0.0,84,0.00,,,0.00,Wunderground v.1.15,2013-04-18 05:30:00,
2013-04-18 00:40:00,69.7,64.6,30.01,South,183,0.0,0.0,84,0.00,,,0.00,Wunderground v.1.15,2013-04-18 05:40:00,
2013-04-18 00:50:00,69.5,64.5,30.01,South,183,0.0,0.0,84,0.00,,,0.00,Wunderground v.1.15,2013-04-18 05:50:00,
2013-04-18 01:00:00,69.3,64.6,30.01,South,183,0.0,0.0,85,0.00,,,0.00,Wunderground v.1.15,2013-04-18 06:00:00,
2013-04-18 01:10:00,69.1,64.1,30.00,South,183,0.0,0.0,84,0.00,,,0.00,Wunderground v.1.15,2013-04-18 06:10:00,
2013-04-18 01:20:00,68.8,64.1,30.00,South,183,0.0,0.0,85,0.00,,,0.00,Wunderground v.1.15,2013-04-18 06:20:00,
2013-04-18 01:30:00,68.6,63.9,30.00,South,183,0.0,0.0,85,0.00,,,0.00,Wunderground v.1.15,2013-04-18 06:30:00,
2013-04-18 01:40:00,68.4,63.4,30.00,South,183,0.0,0.0,84,0.00,,,0.00,Wunderground v.1.15,2013-04-18 06:40:00,
2013-04-18 01:50:00,68.1,63.4,29.99,South,183,0.0,0.0,85,0.00,,,0.00,Wunderground v.1.15,2013-04-18 06:50:00,
2013-04-18 02:00:00,67.8,62.8,29.99,South,183,0.0,0.0,84,0.00,,,0.00,Wunderground v.1.15,2013-04-18 07:00:00,
2013-04-18 02:10:00,67.6,62.9,29.99,South,183,0.0,0.0,85,0.00,,,0.00,Wunderground v.1.15,2013-04-18 07:10:00,
2013-04-18 02:20:00,67.4,62.7,29.98,South,183,0.0,0.0,85,0.00,,,0.00,Wunderground v.1.15,2013-04-18 07:20:00,
2013-04-18 02:30:00,67.3,62.6,29.98,South,183,0.0,0.0,85,0.00,,,0.00,Wunderground v.1.15,2013-04-18 07:30:00,
2013-04-18 02:40:00,67.1,62.4,29.97,South,183,0.0,0.0,85,0.00,,,0.00,Wunderground v.1.15,2013-04-18 07:40:00,
2013-04-18 02:50:00,66.9,62.2,29.97,South,183,0.0,0.0,85,0.00,,,0.00,Wunderground v.1.15,2013-04-18 07:50:00,
2013-04-18 03:00:00,66.8,62.1,29.96,South,183,0.0,0.0,85,0.00,,,0.00,Wunderground v.1.15,2013-04-18 08:00:00,
2013-04-18 03:10:00,66.8,62.1,29.96,South,183,0.0,0.0,85,0.00,,,0.00,Wunderground v.1.15,2013-04-18 08:10:00,
2013-04-18 03:20:00,66.6,61.9,29.95,South,183,0.0,0.0,85,0.00,,,0.00,Wunderground v.1.15,2013-04-18 08:20:00,
2013-04-18 03:30:00,66.6,61.9,29.95,South,183,0.0,0.0,85,0.00,,,0.00,Wunderground v.1.15,2013-04-18 08:30:00,
2013-04-18 03:40:00,66.4,61.8,29.95,South,183,0.0,0.0,85,0.00,,,0.00,Wunderground v.1.15,2013-04-18 08:40:00,
2013-04-18 03:50:00,66.3,61.7,29.95,South,183,0.0,0.0,85,0.00,,,0.00,Wunderground v.1.15,2013-04-18 08:50:00,
2013-04-18 04:00:00,66.1,61.5,29.94,South,183,0.0,0.0,85,0.00,,,0.00,Wunderground v.1.15,2013-04-18 09:00:00,
2013-04-18 04:10:00,66.0,61.4,29.94,South,183,0.0,0.0,85,0.00,,,0.00,Wunderground v.1.15,2013-04-18 09:10:00,
2013-04-18 04:20:00,65.9,61.3,29.93,South,183,0.0,0.0,85,0.00,,,0.00,Wunderground v.1.15,2013-04-18 09:20:00,
2013-04-18 04:30:00,65.9,61.3,29.93,South,183,0.0,0.0,85,0.00,,,0.00,Wunderground v.1.15,2013-04-18 09:30:00,
2013-04-18 04:40:00,66.0,61.4,29.93,South,183,0.0,0.0,85,0.00,,,0.00,Wunderground v.1.15,2013-04-18 09:40:00,
2013-04-18 04:50:00,66.0,61.4,29.94,South,183,0.0,0.0,85,0.00,,,0.00,Wunderground v.1.15,2013-04-18 09:50:00,
2013-04-18 05:00:00,66.0,61.4,29.94,South,183,0.0,0.0,85,0.00,,,0.00,Wunderground v.1.15,2013-04-18 10:00:00,
2013-04-18 05:10:00,65.9,61.3,29.93,South,183,0.0,0.0,85,0.00,,,0.00,Wunderground v.1.15,2013-04-18 10:10:00,
2013-04-18 05:20:00,65.8,61.2,29.92,South,183,0.0,0.0,85,0.00,,,0.00,Wunderground v.1.15,2013-04-18 10:20:00,
2013-04-18 05:30:00,65.9,61.3,29.92,South,183,0.0,0.0,85,0.00,,,0.00,Wunderground v.1.15,2013-04-18 10:30:00,
2013-04-18 05:40:00,65.8,61.2,29.92,South,183,0.0,0.0,85,0.00,,,0.00,Wunderground v.1.15,2013-04-18 10:40:00,
2013-04-18 05:50:00,65.9,61.3,29.92,South,183,0.0,0.0,85,0.00,,,0.00,Wunderground v.1.15,2013-04-18 10:50:00,
2013-04-18 06:00:00,65.7,61.1,29.93,South,183,0.0,0.0,85,0.00,,,0.00,Wunderground v.1.15,2013-04-18 11:00:00,
2013-04-18 06:10:00,65.6,61.3,29.93,South,183,0.0,0.0,86,0.00,,,0.00,Wunderground v.1.15,2013-04-18 11:10:00,
2013-04-18 06:20:00,65.5,61.2,29.93,South,183,0.0,0.0,86,0.00,,,0.00,Wunderground v.1.15,2013-04-18 11:20:00,
2013-04-18 06:30:00,65.4,60.8,29.93,South,183,0.0,0.0,85,0.00,,,0.00,Wunderground v.1.15,2013-04-18 11:30:00,
2013-04-18 06:40:00,65.4,60.8,29.94,South,183,0.0,0.0,85,0.00,,,0.00,Wunderground v.1.15,2013-04-18 11:40:00,
2013-04-18 06:50:00,65.5,61.2,29.93,South,183,0.0,0.0,86,0.00,,,0.00,Wunderground v.1.15,2013-04-18 11:50:00,
2013-04-18 07:00:00,65.8,61.5,29.94,South,183,0.0,0.0,86,0.00,,,0.00,Wunderground v.1.15,2013-04-18 12:00:00,
2013-04-18 07:10:00,66.2,61.9,29.94,South,183,0.0,0.0,86,0.00,,,0.00,Wunderground v.1.15,2013-04-18 12:10:00,
2013-04-18 07:20:00,66.8,62.5,29.94,South,184,0.0,0.0,86,0.00,,,0.00,Wunderground v.1.15,2013-04-18 12:20:00,
2013-04-18 07:30:00,67.6,63.3,29.95,South,184,0.0,0.0,86,0.00,,,0.00,Wunderground v.1.15,2013-04-18 12:30:00,
2013-04-18 07:40:00,68.4,64.0,29.95,South,185,0.0,0.0,86,0.00,,,0.00,Wunderground v.1.15,2013-04-18 12:40:00,
2013-04-18 07:50:00,69.0,64.6,29.96,South,186,0.0,0.0,86,0.00,,,0.00,Wunderground v.1.15,2013-04-18 12:50:00,
2013-04-18 08:00:00,70.5,66.4,29.95,SSW,194,0.0,0.0,87,0.00,,,0.00,Wunderground v.1.15,2013-04-18 13:00:00,
2013-04-18 08:10:00,71.1,67.0,29.95,South,186,0.0,0.0,87,0.00,,,0.00,Wunderground v.1.15,2013-04-18 13:10:00,
2013-04-18 08:20:00,71.3,67.2,29.96,South,181,0.0,0.0,87,0.00,,,0.00,Wunderground v.1.15,2013-04-18 13:20:00,
2013-04-18 08:30:00,71.8,67.7,29.95,SSW,192,0.0,0.0,87,0.00,,,0.00,Wunderground v.1.15,2013-04-18 13:30:00,
2013-04-18 08:40:00,72.5,68.1,29.96,South,191,0.0,0.0,86,0.00,,,0.00,Wunderground v.1.15,2013-04-18 13:40:00,
2013-04-18 08:50:00,72.8,68.4,29.96,South,174,0.0,0.0,86,0.00,,,0.00,Wunderground v.1.15,2013-04-18 13:50:00,
2013-04-18 09:00:00,73.3,68.5,29.96,South,170,0.0,0.0,85,0.00,,,0.00,Wunderground v.1.15,2013-04-18 14:00:00,
2013-04-18 09:10:00,74.2,69.1,29.96,SSE,158,0.0,0.0,84,0.00,,,0.00,Wunderground v.1.15,2013-04-18 14:10:00,
2013-04-18 09:20:00,74.9,68.3,29.96,SE,142,1.0,1.0,80,0.00,,,0.00,Wunderground v.1.15,2013-04-18 14:20:00,
2013-04-18 09:30:00,75.3,68.3,29.95,East,90,0.0,0.0,79,0.00,,,0.00,Wunderground v.1.15,2013-04-18 14:30:00,
2013-04-18 09:40:00,75.6,68.3,29.96,SE,146,1.0,1.0,78,0.00,,,0.00,Wunderground v.1.15,2013-04-18 14:40:00,
2013-04-18 09:50:00,76.2,68.5,29.96,SSE,163,1.0,1.0,77,0.00,,,0.00,Wunderground v.1.15,2013-04-18 14:50:00,
2013-04-18 10:00:00,76.4,67.9,29.96,SE,138,1.0,1.0,75,0.00,,,0.00,Wunderground v.1.15,2013-04-18 15:00:00,
2013-04-18 10:10:00,76.7,68.9,29.96,ESE,103,0.0,0.0,77,0.00,,,0.00,Wunderground v.1.15,2013-04-18 15:10:00,
2013-04-18 10:20:00,76.7,68.2,29.96,SE,142,1.0,2.0,75,0.00,,,0.00,Wunderground v.1.15,2013-04-18 15:20:00,
2013-04-18 10:30:00,77.1,68.6,29.96,ESE,107,1.0,1.0,75,0.00,,,0.00,Wunderground v.1.15,2013-04-18 15:30:00,
2013-04-18 10:40:00,77.9,68.5,29.95,South,171,2.0,4.0,73,0.00,,,0.00,Wunderground v.1.15,2013-04-18 15:40:00,
2013-04-18 10:50:00,78.0,68.6,29.95,SSE,162,1.0,1.0,73,0.00,,,0.00,Wunderground v.1.15,2013-04-18 15:50:00,
2013-04-18 11:00:00,77.9,68.9,29.95,SSW,197,1.0,3.0,74,0.00,,,0.00,Wunderground v.1.15,2013-04-18 16:00:00,
2013-04-18 11:10:00,78.5,69.5,29.95,ESE,105,1.0,1.0,74,0.00,,,0.00,Wunderground v.1.15,2013-04-18 16:10:00,
2013-04-18 11:20:00,78.7,69.3,29.95,South,175,1.0,2.0,73,0.00,,,0.00,Wunderground v.1.15,2013-04-18 16:20:00,
2013-04-18 11:30:00,79.0,69.2,29.95,South,173,1.0,4.0,72,0.00,,,0.00,Wunderground v.1.15,2013-04-18 16:30:00,
2013-04-18 11:40:00,78.7,68.9,29.95,South,190,1.0,1.0,72,0.00,,,0.00,Wunderground v.1.15,2013-04-18 16:40:00,
2013-04-18 11:50:00,78.3,68.9,29.95,East,82,0.0,1.0,73,0.00,,,0.00,Wunderground v.1.15,2013-04-18 16:50:00,
2013-04-18 12:00:00,77.8,68.8,29.95,South,175,1.0,1.0,74,0.00,,,0.00,Wunderground v.1.15,2013-04-18 17:00:00,
2013-04-18 12:10:00,78.3,69.7,29.95,SSW,197,1.0,1.0,75,0.00,,,0.00,Wunderground v.1.15,2013-04-18 17:10:00,
2013-04-18 12:20:00,78.4,69.8,29.95,SSW,196,1.0,1.0,75,0.00,,,0.00,Wunderground v.1.15,2013-04-18 17:20:00,
2013-04-18 12:30:00,78.7,70.1,29.95,SE,125,0.0,3.0,75,0.00,,,0.00,Wunderground v.1.15,2013-04-18 17:30:00,
2013-04-18 12:40:00,79.0,70.4,29.95,SE,126,1.0,1.0,75,0.00,,,0.00,Wunderground v.1.15,2013-04-18 17:40:00,
2013-04-18 12:50:00,79.2,70.2,29.94,SW,227,0.0,0.0,74,0.00,,,0.00,Wunderground v.1.15,2013-04-18 17:50:00,
2013-04-18 13:00:00,79.2,70.2,29.94,SSW,197,0.0,0.0,74,0.00,,,0.00,Wunderground v.1.15,2013-04-18 18:00:00,
2013-04-18 13:10:00,79.6,69.8,29.94,SSW,211,1.0,1.0,72,0.00,,,0.00,Wunderground v.1.15,2013-04-18 18:10:00,
2013-04-18 13:20:00,79.3,70.3,29.94,SE,146,0.0,0.0,74,0.00,,,0.00,Wunderground v.1.15,2013-04-18 18:20:00,
2013-04-18 13:30:00,79.2,70.2,29.94,South,177,0.0,0.0,74,0.00,,,0.00,Wunderground v.1.15,2013-04-18 18:30:00,
2013-04-18 13:40:00,79.1,70.1,29.93,South,183,1.0,1.0,74,0.00,,,0.00,Wunderground v.1.15,2013-04-18 18:40:00,
2013-04-18 13:50:00,79.5,70.5,29.93,SSE,159,0.0,0.0,74,0.00,,,0.00,Wunderground v.1.15,2013-04-18 18:50:00,
2013-04-18 14:00:00,79.6,70.6,29.93,South,178,0.0,0.0,74,0.00,,,0.00,Wunderground v.1.15,2013-04-18 19:00:00,
2013-04-18 14:10:00,79.5,70.5,29.92,SSE,163,1.0,1.0,74,0.00,,,0.00,Wunderground v.1.15,2013-04-18 19:10:00,
2013-04-18 14:20:00,79.4,70.4,29.92,SE,136,1.0,1.0,74,0.00,,,0.00,Wunderground v.1.15,2013-04-18 19:20:00,
2013-04-18 14:30:00,79.5,70.5,29.92,South,182,1.0,1.0,74,0.00,,,0.00,Wunderground v.1.15,2013-04-18 19:30:00,
2013-04-18 14:40:00,79.4,70.8,29.92,SE,128,1.0,1.0,75,0.00,,,0.00,Wunderground v.1.15,2013-04-18 19:40:00,
2013-04-18 14:50:00,79.4,70.8,29.92,South,185,1.0,1.0,75,0.00,,,0.00,Wunderground v.1.15,2013-04-18 19:50:00,
2013-04-18 15:00:00,79.0,70.4,29.91,SSW,193,1.0,5.0,75,0.00,,,0.00,Wunderground v.1.15,2013-04-18 20:00:00,
2013-04-18 15:10:00,78.7,70.5,29.91,South,188,1.0,1.0,76,0.00,,,0.00,Wunderground v.1.15,2013-04-18 20:10:00,
2013-04-18 15:20:00,78.8,70.6,29.91,South,185,0.0,1.0,76,0.00,,,0.00,Wunderground v.1.15,2013-04-18 20:20:00,
2013-04-18 15:30:00,79.0,70.8,29.90,SW,219,1.0,5.0,76,0.00,,,0.00,Wunderground v.1.15,2013-04-18 20:30:00,
2013-04-18 15:40:00,78.9,70.3,29.90,SSE,166,1.0,1.0,75,0.00,,,0.00,Wunderground v.1.15,2013-04-18 20:40:00,
2013-04-18 15:50:00,79.4,70.8,29.89,South,173,1.0,3.0,75,0.00,,,0.00,Wunderground v.1.15,2013-04-18 20:50:00,
2013-04-18 16:00:00,79.4,70.8,29.89,South,182,0.0,0.0,75,0.00,,,0.00,Wunderground v.1.15,2013-04-18 21:00:00,
2013-04-18 16:10:00,78.9,70.7,29.89,South,181,0.0,0.0,76,0.00,,,0.00,Wunderground v.1.15,2013-04-18 21:10:00,
2013-04-18 16:20:00,78.5,70.3,29.89,South,191,0.0,0.0,76,0.00,,,0.00,Wunderground v.1.15,2013-04-18 21:20:00,
2013-04-18 16:30:00,78.2,70.4,29.89,ESE,118,0.0,0.0,77,0.00,,,0.00,Wunderground v.1.15,2013-04-18 21:30:00,
2013-04-18 16:40:00,78.0,70.2,29.88,South,188,0.0,0.0,77,0.00,,,0.00,Wunderground v.1.15,2013-04-18 21:40:00,
2013-04-18 16:50:00,77.8,70.4,29.88,SSW,209,0.0,0.0,78,0.00,,,0.00,Wunderground v.1.15,2013-04-18 21:50:00,
2013-04-18 17:00:00,77.7,70.3,29.88,South,183,0.0,0.0,78,0.00,,,0.00,Wunderground v.1.15,2013-04-18 22:00:00,
2013-04-18 17:10:00,77.8,70.4,29.89,South,188,0.0,4.0,78,0.00,,,0.00,Wunderground v.1.15,2013-04-18 22:10:00,
2013-04-18 17:20:00,77.6,70.2,29.90,SSW,196,0.0,0.0,78,0.00,,,0.00,Wunderground v.1.15,2013-04-18 22:20:00,
2013-04-18 17:30:00,77.6,70.2,29.89,SSE,167,0.0,0.0,78,0.00,,,0.00,Wunderground v.1.15,2013-04-18 22:30:00,
2013-04-18 17:40:00,77.5,70.1,29.89,SSE,165,0.0,3.0,78,0.00,,,0.00,Wunderground v.1.15,2013-04-18 22:40:00,
2013-04-18 17:50:00,77.5,70.5,29.89,SSW,204,0.0,0.0,79,0.00,,,0.00,Wunderground v.1.15,2013-04-18 22:50:00,
2013-04-18 18:00:00,77.3,70.3,29.90,SSW,204,0.0,0.0,79,0.00,,,0.00,Wunderground v.1.15,2013-04-18 23:00:00,
2013-04-18 18:10:00,77.3,70.3,29.90,SW,229,0.0,0.0,79,0.00,,,0.00,Wunderground v.1.15,2013-04-18 23:10:00,
2013-04-18 18:20:00,77.2,70.2,29.89,SSE,164,0.0,0.0,79,0.00,,,0.00,Wunderground v.1.15,2013-04-18 23:20:00,
2013-04-18 18:30:00,77.2,70.2,29.89,SSW,207,0.0,0.0,79,0.00,,,0.00,Wunderground v.1.15,2013-04-18 23:30:00,
2013-04-18 18:40:00,77.1,70.5,29.89,SSW,197,0.0,0.0,80,0.00,,,0.00,Wunderground v.1.15,2013-04-18 23:40:00,
2013-04-18 18:50:00,77.1,70.5,29.90,SSE,159,1.0,1.0,80,0.00,,,0.00,Wunderground v.1.15,2013-04-18 23:50:00,
2013-04-18 19:00:00,77.0,70.4,29.89,SSE,163,1.0,1.0,80,0.00,,,0.00,Wunderground v.1.15,2013-04-19 00:00:00,
2013-04-18 19:10:00,77.0,70.4,29.89,SSW,197,0.0,0.0,80,0.00,,,0.00,Wunderground v.1.15,2013-04-19 00:10:00,
2013-04-18 19:20:00,76.9,70.6,29.89,South,171,0.0,0.0,81,0.00,,,0.00,Wunderground v.1.15,2013-04-19 00:20:00,
2013-04-18 19:30:00,76.8,70.5,29.89,South,169,0.0,0.0,81,0.00,,,0.00,Wunderground v.1.15,2013-04-19 00:30:00,
2013-04-18 19:40:00,76.7,70.4,29.88,SSE,159,1.0,1.0,81,0.00,,,0.00,Wunderground v.1.15,2013-04-19 00:40:00,
2013-04-18 19:50:00,76.6,70.3,29.88,SSW,201,0.0,4.0,81,0.00,,,0.00,Wunderground v.1.15,2013-04-19 00:50:00,
2013-04-18 20:00:00,76.6,70.3,29.88,ENE,68,1.0,1.0,81,0.00,,,0.00,Wunderground v.1.15,2013-04-19 01:00:00,
2013-04-18 20:10:00,76.6,70.7,29.88,East,100,1.0,1.0,82,0.00,,,0.00,Wunderground v.1.15,2013-04-19 01:10:00,
2013-04-18 20:20:00,76.6,70.7,29.88,South,178,0.0,0.0,82,0.00,,,0.00,Wunderground v.1.15,2013-04-19 01:20:00,
2013-04-18 20:30:00,76.5,70.6,29.89,SSE,148,0.0,1.0,82,0.00,,,0.00,Wunderground v.1.15,2013-04-19 01:30:00,
2013-04-18 20:40:00,76.5,70.6,29.88,SSW,193,0.0,0.0,82,0.00,,,0.00,Wunderground v.1.15,2013-04-19 01:40:00,
2013-04-18 20:50:00,76.5,70.6,29.89,South,182,0.0,0.0,82,0.00,,,0.00,Wunderground v.1.15,2013-04-19 01:50:00,
2013-04-18 21:00:00,76.5,70.6,29.88,SSE,162,1.0,1.0,82,0.00,,,0.00,Wunderground v.1.15,2013-04-19 02:00:00,
2013-04-18 21:10:00,76.5,70.6,29.89,SSW,211,0.0,1.0,82,0.00,,,0.00,Wunderground v.1.15,2013-04-19 02:10:00,
2013-04-18 21:20:00,76.5,70.6,29.89,SSE,157,1.0,1.0,82,0.00,,,0.00,Wunderground v.1.15,2013-04-19 02:20:00,
2013-04-18 21:30:00,76.5,70.6,29.89,SSE,164,1.0,1.0,82,0.00,,,0.00,Wunderground v.1.15,2013-04-19 02:30:00,
2013-04-18 21:40:00,76.5,70.6,29.89,SSW,209,1.0,7.0,82,0.00,,,0.00,Wunderground v.1.15,2013-04-19 02:40:00,
2013-04-18 21:50:00,76.5,70.6,29.89,SSE,162,1.0,4.0,82,0.00,,,0.00,Wunderground v.1.15,2013-04-19 02:50:00,
2013-04-18 22:00:00,76.6,70.7,29.89,South,169,1.0,1.0,82,0.00,,,0.00,Wunderground v.1.15,2013-04-19 03:00:00,
2013-04-18 22:10:00,76.6,70.7,29.89,South,188,1.0,1.0,82,0.00,,,0.00,Wunderground v.1.15,2013-04-19 03:10:00,
2013-04-18 22:20:00,76.6,70.7,29.89,SSW,193,0.0,0.0,82,0.00,,,0.00,Wunderground v.1.15,2013-04-19 03:20:00,
2013-04-18 22:30:00,76.6,70.7,29.89,SSE,156,1.0,3.0,82,0.00,,,0.00,Wunderground v.1.15,2013-04-19 03:30:00,
2013-04-18 22:40:00,76.7,70.8,29.89,South,178,1.0,2.0,82,0.00,,,0.00,Wunderground v.1.15,2013-04-19 03:40:00,
2013-04-18 22:50:00,76.7,70.8,29.89,South,169,1.0,1.0,82,0.00,,,0.00,Wunderground v.1.15,2013-04-19 03:50:00,
2013-04-18 23:00:00,76.6,70.7,29.89,South,186,1.0,1.0,82,0.00,,,0.00,Wunderground v.1.15,2013-04-19 04:00:00,
2013-04-18 23:10:00,76.7,70.8,29.89,SSW,201,2.0,2.0,82,0.00,,,0.00,Wunderground v.1.15,2013-04-19 04:10:00,
2013-04-18 23:20:00,76.7,70.8,29.89,SSW,211,1.0,1.0,82,0.00,,,0.00,Wunderground v.1.15,2013-04-19 04:20:00,
2013-04-18 23:30:00,76.7,70.8,29.89,SSW,198,1.0,1.0,82,0.00,,,0.00,Wunderground v.1.15,2013-04-19 04:30:00,
2013-04-18 23:40:00,76.8,70.9,29.88,SW,218,3.0,3.0,82,0.00,,,0.00,Wunderground v.1.15,2013-04-19 04:40:00,
2013-04-18 23:50:00,76.8,70.9,29.88,SE,145,2.0,4.0,82,0.00,,,0.00,Wunderground v.1.15,2013-04-19 04:50:00,